Starlink 11083

operational
NORAD ID: 59424 Int'l Des: 2024-065 Owner: SPXS Country: US Constellation: starlink
LEOCIRCULAR

Über Starlink 11083

Beschreibung wird geladen...

Live-Position

3D-Globus wird geladen...

Nächste Überflüge

Höhenverlauf

Altitude vs Time

uPlot chart will show altitude changes over time

Zweizeiliger Elementsatz

1 59424U 24065D 25258.67303506 .00004399 00000-0 41097-4 0 9993
2 59424 53.1572 236.7334 0001785 89.5212 270.6011 15.69745955 83986
Epoch: 15. Sept. 2025 • Age: 17 hours

Aktueller Status

Höhe 366.3 km
Geschwindigkeit 7.69 km/s
Subsatellitenpunkt -21.69°S, 87.83°E
Startdatum 7. Apr. 2024
Alter 1.4 years
Typ internet

Technische Details

Klassifizierung Payload
Masse 960.00 kg
Trockenmasse 910.00 kg
Gesamtmasse 960.00 kg
Länge 0.30 m
Durchmesser 4.10 m
Spannweite 29.00 m
Form Box + pan
Hersteller SPXS
Bus-Typ Starlink V2MD
Phasenstatus In Orbit
Besitzer/Staat SPXS/US

Große Konstellationen

Loading constellations...